• En España
  • Lista de países
  • Para 7 días
  • Temperatura del agua
  • Mapa Satelital
  • El tiempo en el mapa
  • Informadores
  • user-avatar
    Iniciar sesión

    Tiempo cada hora Rebordosa

    Hoy, 23 Enero, Martes

    Tiempo Temperatura Precipitaciones Viento Presión Humedad
    00:00 +9°C° 0 mm 1 mps 742 mmHg 93%
    01:00 +9°C° 0 mm 1 mps 742 mmHg 92%
    02:00 +9°C° 0 mm 1 mps 742 mmHg 92%
    03:00 +9°C° 0 mm 1 mps 742 mmHg 92%
    04:00 +8°C° 0 mm 1 mps 742 mmHg 92%
    05:00 +8°C° 0 mm 1 mps 741 mmHg 92%
    06:00 +9°C° 0 mm 1 mps 742 mmHg 91%
    07:00 +9°C° 0 mm 1 mps 742 mmHg 89%
    08:00 +9°C° 0 mm 1 mps 742 mmHg 88%
    09:00 +11°C° 0 mm 1 mps 742 mmHg 81%
    10:00 +13°C° 0 mm 1 mps 742 mmHg 74%
    11:00 +14°C° 0 mm 0 mps 742 mmHg 67%
    12:00 +16°C° 0 mm 1 mps 742 mmHg 65%
    13:00 +16°C° 0 mm 1 mps 741 mmHg 64%
    14:00 +16°C° 0 mm 1 mps 741 mmHg 63%
    15:00 +15°C° 0 mm 1 mps 741 mmHg 71%
    16:00 +13°C° 0 mm 1 mps 741 mmHg 79%
    17:00 +11°C° 0 mm 1 mps 741 mmHg 88%
    18:00 +11°C° 0 mm 1 mps 741 mmHg 89%
    19:00 +10°C° 0 mm 1 mps 741 mmHg 90%
    20:00 +9°C° 0 mm 0 mps 741 mmHg 92%
    21:00 +8°C° 0 mm 0 mps 741 mmHg 92%
    22:00 +8°C° 0 mm 0 mps 741 mmHg 92%
    23:00 +8°C° 0 mm 0 mps 741 mmHg 92%

    Mañana, 24 Enero, Miércoles

    Tiempo Temperatura Precipitaciones Viento Presión Humedad
    00:00 +8°C° 0 mm 1 mps 741 mmHg 92%
    01:00 +8°C° 0 mm 1 mps 740 mmHg 92%
    02:00 +8°C° 0 mm 1 mps 740 mmHg 91%
    03:00 +8°C° 0 mm 1 mps 740 mmHg 92%
    04:00 +8°C° 0 mm 1 mps 739 mmHg 92%
    05:00 +7°C° 0 mm 1 mps 739 mmHg 92%
    06:00 +8°C° 0 mm 1 mps 739 mmHg 91%
    07:00 +8°C° 0 mm 1 mps 740 mmHg 90%
    08:00 +8°C° 0 mm 2 mps 740 mmHg 90%
    09:00 +9°C° 0 mm 2 mps 740 mmHg 83%
    10:00 +12°C° 0 mm 2 mps 740 mmHg 77%
    11:00 +12°C° 0 mm 3 mps 740 mmHg 71%
    12:00 +13°C° 0 mm 3 mps 739 mmHg 70%
    13:00 +13°C° 0 mm 3 mps 738 mmHg 70%
    14:00 +14°C° 0 mm 3 mps 738 mmHg 69%
    15:00 +13°C° 0,1 mm 3 mps 738 mmHg 75%
    16:00 +12°C° 0,1 mm 3 mps 738 mmHg 82%
    17:00 +11°C° 0,1 mm 3 mps 738 mmHg 88%
    18:00 +11°C° 0,3 mm 3 mps 738 mmHg 89%
    19:00 +11°C° 0,3 mm 4 mps 738 mmHg 90%
    20:00 +10°C° 0,3 mm 4 mps 738 mmHg 92%
    21:00 +11°C° 0,6 mm 4 mps 738 mmHg 93%
    22:00 +11°C° 0,6 mm 3 mps 737 mmHg 94%
    23:00 +11°C° 0,6 mm 3 mps 737 mmHg 95%

    Pasado mañana, 25 Enero, Jueves

    Tiempo Temperatura Precipitaciones Viento Presión Humedad
    00:00 +11°C° 0,5 mm 3 mps 737 mmHg 95%
    01:00 +10°C° 0,5 mm 3 mps 737 mmHg 95%
    02:00 +10°C° 0,5 mm 3 mps 737 mmHg 95%
    03:00 +10°C° 0,1 mm 3 mps 737 mmHg 94%
    04:00 +9°C° 0,1 mm 2 mps 736 mmHg 92%
    05:00 +9°C° 0,1 mm 2 mps 736 mmHg 91%
    06:00 +9°C° 0,3 mm 3 mps 737 mmHg 90%
    07:00 +9°C° 0,3 mm 3 mps 737 mmHg 89%
    08:00 +9°C° 0,3 mm 3 mps 737 mmHg 89%
    09:00 +8°C° 0,4 mm 4 mps 737 mmHg 86%
    10:00 +8°C° 0,4 mm 4 mps 737 mmHg 82%
    11:00 +8°C° 0,4 mm 5 mps 737 mmHg 79%
    12:00 +8°C° 0,4 mm 5 mps 737 mmHg 78%
    13:00 +8°C° 0,4 mm 5 mps 737 mmHg 77%
    14:00 +8°C° 0,4 mm 6 mps 737 mmHg 76%
    15:00 +7°C° 0,2 mm 5 mps 737 mmHg 78%
    16:00 +6°C° 0,2 mm 5 mps 737 mmHg 81%
    17:00 +5°C° 0,2 mm 5 mps 738 mmHg 83%
    18:00 +5°C° 0,1 mm 4 mps 738 mmHg 84%
    19:00 +4°C° 0,1 mm 4 mps 739 mmHg 84%
    20:00 +4°C° 0,1 mm 4 mps 740 mmHg 85%
    21:00 +3°C° 0,2 mm 3 mps 740 mmHg 86%
    22:00 +3°C° 0,2 mm 3 mps 740 mmHg 87%
    23:00 +3°C° 0,2 mm 3 mps 740 mmHg 87%

    26 Enero, Viernes

    Tiempo Temperatura Precipitaciones Viento Presión Humedad
    00:00 +3°C° 0,1 mm 3 mps 740 mmHg 88%
    01:00 +3°C° 0,1 mm 3 mps 740 mmHg 89%
    02:00 +2°C° 0,1 mm 3 mps 741 mmHg 90%
    03:00 +2°C° 0 mm 3 mps 741 mmHg 90%
    04:00 +2°C° 0 mm 3 mps 741 mmHg 90%
    05:00 +2°C° 0 mm 3 mps 742 mmHg 90%
    06:00 +3°C° 0 mm 2 mps 742 mmHg 89%
    07:00 +4°C° 0 mm 2 mps 743 mmHg 88%
    08:00 +4°C° 0 mm 2 mps 743 mmHg 87%
    09:00 +5°C° 0 mm 3 mps 744 mmHg 80%
    10:00 +7°C° 0 mm 3 mps 744 mmHg 73%
    11:00 +9°C° 0 mm 3 mps 745 mmHg 67%
    12:00 +8°C° 0 mm 4 mps 744 mmHg 65%
    13:00 +10°C° 0 mm 4 mps 744 mmHg 63%
    14:00 +10°C° 0 mm 4 mps 744 mmHg 61%
    15:00 +8°C° 0 mm 4 mps 744 mmHg 67%
    16:00 +7°C° 0 mm 4 mps 744 mmHg 74%
    17:00 +7°C° 0 mm 3 mps 745 mmHg 80%
    18:00 +5°C° 0 mm 3 mps 745 mmHg 82%
    19:00 +5°C° 0 mm 3 mps 746 mmHg 85%
    20:00 +4°C° 0 mm 3 mps 746 mmHg 87%
    21:00 +4°C° 0 mm 3 mps 746 mmHg 87%
    22:00 +3°C° 0 mm 3 mps 746 mmHg 87%
    23:00 +3°C° 0 mm 3 mps 747 mmHg 87%

    27 Enero, Sábado

    Tiempo Temperatura Precipitaciones Viento Presión Humedad
    00:00 +4°C° 0 mm 2 mps 746 mmHg 87%
    01:00 +4°C° 0 mm 2 mps 746 mmHg 86%
    02:00 +4°C° 0 mm 2 mps 746 mmHg 85%
    03:00 +4°C° 0 mm 2 mps 746 mmHg 85%
    04:00 +4°C° 0 mm 2 mps 746 mmHg 84%
    05:00 +4°C° 0 mm 2 mps 746 mmHg 83%
    06:00 +4°C° 0 mm 2 mps 747 mmHg 82%
    07:00 +5°C° 0 mm 2 mps 747 mmHg 81%
    08:00 +5°C° 0 mm 2 mps 747 mmHg 80%
    09:00 +7°C° 0 mm 3 mps 747 mmHg 74%
    10:00 +9°C° 0 mm 3 mps 747 mmHg 68%
    11:00 +11°C° 0 mm 3 mps 747 mmHg 62%
    12:00 +12°C° 0 mm 4 mps 747 mmHg 60%
    13:00 +12°C° 0 mm 4 mps 746 mmHg 59%
    14:00 +13°C° 0 mm 4 mps 746 mmHg 58%
    15:00 +11°C° 0 mm 4 mps 746 mmHg 64%
    16:00 +10°C° 0 mm 4 mps 746 mmHg 70%
    17:00 +8°C° 0 mm 3 mps 746 mmHg 76%
    18:00 +8°C° 0 mm 3 mps 746 mmHg 79%
    19:00 +7°C° 0 mm 3 mps 746 mmHg 81%
    20:00 +7°C° 0 mm 3 mps 746 mmHg 84%
    21:00 +7°C° 0 mm 3 mps 746 mmHg 85%
    22:00 +5°C° 0 mm 3 mps 746 mmHg 86%
    23:00 +5°C° 0 mm 3 mps 746 mmHg 87%

    28 Enero, Domingo

    Tiempo Temperatura Precipitaciones Viento Presión Humedad
    00:00 +5°C° 0 mm 3 mps 745 mmHg 88%
    01:00 +5°C° 0 mm 3 mps 745 mmHg 89%
    02:00 +5°C° 0 mm 3 mps 744 mmHg 90%
    03:00 +5°C° 0 mm 3 mps 744 mmHg 90%
    04:00 +5°C° 0 mm 3 mps 744 mmHg 91%
    05:00 +5°C° 0 mm 3 mps 744 mmHg 91%
    06:00 +7°C° 0 mm 3 mps 744 mmHg 90%
    07:00 +7°C° 0 mm 3 mps 744 mmHg 88%
    08:00 +8°C° 0 mm 3 mps 744 mmHg 86%
    09:00 +10°C° 0 mm 3 mps 744 mmHg 77%
    10:00 +12°C° 0 mm 3 mps 744 mmHg 69%
    11:00 +16°C° 0 mm 3 mps 744 mmHg 60%
    12:00 +15°C° 0 mm 4 mps 743 mmHg 59%
    13:00 +15°C° 0 mm 4 mps 743 mmHg 58%
    14:00 +17°C° 0 mm 4 mps 743 mmHg 57%
    15:00 +14°C° 0 mm 3 mps 743 mmHg 64%
    16:00 +12°C° 0 mm 3 mps 743 mmHg 70%
    17:00 +12°C° 0 mm 2 mps 743 mmHg 76%
    18:00 +10°C° 0 mm 2 mps 743 mmHg 78%
    19:00 +9°C° 0 mm 2 mps 743 mmHg 80%
    20:00 +9°C° 0 mm 2 mps 743 mmHg 82%
    21:00 +8°C° 0 mm 2 mps 743 mmHg 82%
    22:00 +8°C° 0 mm 2 mps 743 mmHg 83%
    23:00 +7°C° 0 mm 2 mps 743 mmHg 84%
    Mostrar más